Change the Weather History Date:

Sunday, November 18, 2012

  Actual Average Record
Temperature  
Mean Temperature 40 °F -  
Max Temperature 48 °F 45 °F 59 °F (2011)
Min Temperature 32 °F 35 °F 23 °F (2005)
Degree Days  
Heating Degree Days 25    
Moisture  
Dew Point 37 °F    
Average Humidity 86    
Maximum Humidity 100    
Minimum Humidity 71    
Precipitation  
Precipitation 0.00 in - - ()
Sea Level Pressure  
Sea Level Pressure 29.95 in    
Wind  
Wind Speed 5 mph ()    
Max Wind Speed 7 mph    
Max Gust Speed -    
Visibility 5.8 miles    
Events Fog    
Averages and records for this station are not official NWS values.
T = Trace of Precipitation, MM = Missing Value Source: Averaged Metar Reports

Daily Weather History Graph

Daily Weather History Graph

Search for Another Location

Airport or City:

Trip Planner

Search our weather history database for the weather conditions in past years. The results will help you decide how hot, cold, wet, or windy it might be!

Date:

Astronomy

Nov. 18, 2012 Rise Set
Actual Time 7:32 AM GMT 4:08 PM GMT
Civil Twilight 6:54 AM GMT 4:47 PM GMT
Nautical Twilight 6:12 AM GMT 5:29 PM GMT
Astronomical Twilight 5:32 AM GMT 6:09 PM GMT
Moon 11:44 AM GMT (11/18) 9:20 PM GMT (11/18)
Length of Visible Light 9h 52m
Length of Day
8h 35m
Waxing Crescent, 28% of the Moon is Illuminated
Nov 18
Waxing Crescent
Nov 20
First Quarter
Nov 28
Full
Dec 6
Last Quarter
Dec 13
New

Hourly Weather History & Observations

Time (GMT) Temp. Windchill Dew Point Humidity Pressure Visibility Wind Dir Wind Speed Gust Speed Precip Events Conditions
8:20 AM 32.0 °F 28.7 °F 32.0 °F 100% 29.95 in 5.0 mi Variable 3.5 mph - N/A Fog Patches of Fog
8:50 AM 32.0 °F 27.5 °F 32.0 °F 100% 29.95 in 5.0 mi South 4.6 mph - N/A   Unknown
9:20 AM 33.8 °F 28.6 °F 33.8 °F 100% 29.95 in 5.0 mi SSW 5.8 mph - N/A   Unknown
9:50 AM 37.4 °F 33.8 °F 37.4 °F 100% 29.95 in - SSW 4.6 mph - N/A   Clear
10:20 AM 39.2 °F 35.0 °F 37.4 °F 93% 29.98 in - SW 5.8 mph - N/A   Clear
10:50 AM 41.0 °F 36.4 °F 39.2 °F 93% 29.98 in - SW 6.9 mph - N/A   Clear
11:20 AM 42.8 °F 38.6 °F 39.2 °F 87% 29.98 in - SW 6.9 mph - N/A   Clear
11:50 AM 44.6 °F 40.7 °F 39.2 °F 81% 29.95 in - SW 6.9 mph - N/A   Clear
12:20 PM 46.4 °F 42.9 °F 39.2 °F 76% 29.95 in - SW 6.9 mph - N/A   Clear
12:50 PM 46.4 °F 43.5 °F 39.2 °F 76% 29.95 in 6.2 mi SW 5.8 mph - N/A   Partly Cloudy
1:20 PM 46.4 °F 42.9 °F 39.2 °F 76% 29.95 in 6.2 mi SW 6.9 mph - N/A   Partly Cloudy
1:50 PM 48.2 °F - 39.2 °F 71% 29.95 in 6.2 mi SW 6.9 mph - N/A   Partly Cloudy
2:20 PM 46.4 °F 42.9 °F 37.4 °F 71% 29.95 in 6.2 mi SW 6.9 mph - N/A   Partly Cloudy
2:50 PM 44.6 °F 43.1 °F 37.4 °F 76% 29.95 in - SSW 3.5 mph - N/A   Clear
3:20 PM 42.8 °F 41.1 °F 37.4 °F 81% 29.95 in - South 3.5 mph - N/A   Clear
3:50 PM 41.0 °F 39.0 °F 37.4 °F 87% 29.95 in - South 3.5 mph - N/A   Clear
4:20 PM 41.0 °F 39.0 °F 35.6 °F 81% 29.95 in 6.2 mi South 3.5 mph - N/A   Partly Cloudy
4:50 PM 39.2 °F 37.0 °F 35.6 °F 87% 29.95 in 6.2 mi SSE 3.5 mph - N/A   Partly Cloudy
5:20 PM 37.4 °F 33.8 °F 35.6 °F 93% 29.95 in 6.2 mi South 4.6 mph - N/A   Partly Cloudy
5:50 PM 37.4 °F 33.8 °F 35.6 °F 93% 29.95 in - South 4.6 mph - N/A   Clear
6:20 PM 37.4 °F 33.8 °F 35.6 °F 93% 29.95 in - South 4.6 mph - N/A   Clear
6:50 PM 39.2 °F 35.9 °F 35.6 °F 87% 29.95 in - SSE 4.6 mph - N/A   Clear